W3ADC Weather Reports


time (UTC)temp
C
wind
direction
speed
KPH
gust
KPH
rain 1hr
cm
rain 24hr
cm
rain mn
cm
humidity
%
barometer
mb
20260505140541 21 240 3.2 9.7 0.00 0.00 0.00 54 1010.3
20260505125041 18 213 4.8 14.5 0.00 0.00 0.00 61 1010.8
20260505124559 17 209 3.2 14.5 0.00 0.00 0.00 62 1010.8
20260505124042 17 234 3.2 19.3 0.00 0.00 0.00 63 1010.7
20260505123550 17 198 6.4 19.3 0.00 0.00 0.00 63 1010.9
20260505123056 17 232 4.8 19.3 0.00 0.00 0.00 63 1010.9
20260505122542 17 205 3.2 14.5 0.00 0.00 0.00 64 1010.9
20260505122044 16 203 4.8 14.5 0.00 0.00 0.00 64 1010.9
20260505121618 16 219 4.8 19.3 0.00 0.00 0.00 65 1011.0
20260505121042 16 192 9.7 19.3 0.00 0.00 0.00 65 1010.9
20260505120542 16 221 8.0 19.3 0.00 0.00 0.00 65 1010.8
20260505120053 16 234 4.8 12.9 0.00 0.00 0.00 66 1010.7
20260505115541 16 217 4.8 12.9 0.00 0.00 0.00 67 1010.6
20260505115042 15 216 4.8 17.7 0.00 0.00 0.00 67 1010.5
20260505114554 15 235 4.8 17.7 0.00 0.00 0.00 68 1010.4
20260505114041 15 161 3.2 8.0 0.00 0.00 0.00 68 1010.4
20260505113541 15 226 3.2 17.7 0.00 0.00 0.00 68 1010.3
20260505113103 15 219 4.8 17.7 0.00 0.00 0.00 68 1010.3
20260505112540 15 238 3.2 14.5 0.00 0.00 0.00 68 1010.3
20260505112041 15 215 3.2 14.5 0.00 0.00 0.00 68 1010.2
20260505111549 15 209 3.2 11.3 0.00 0.00 0.00 68 1010.1
20260505111043 15 232 3.2 16.1 0.00 0.00 0.00 69 1010.1
20260505110542 15 177 4.8 16.1 0.00 0.00 0.00 69 1010.0
20260505102040 15 209 4.8 16.1 0.00 0.00 0.00 69 1009.5
20260505101547 15 242 4.8 16.1 0.00 0.00 0.00 69 1009.4
20260505101041 14 223 4.8 14.5 0.00 0.00 0.00 70 1009.5
20260505100541 14 226 6.4 14.5 0.00 0.00 0.00 70 1009.5
20260505100123 14 227 3.2 14.5 0.00 0.00 0.00 70 1009.5
20260505095546 14 209 4.8 14.5 0.00 0.00 0.00 70 1009.4
20260505095046 14 212 4.8 11.3 0.00 0.00 0.00 70 1009.5
20260505094545 15 221 3.2 14.5 0.00 0.00 0.00 69 1009.4
20260505094041 15 208 3.2 14.5 0.00 0.00 0.00 69 1009.4
20260505093542 15 219 4.8 11.3 0.00 0.00 0.00 69 1009.3
20260505093044 15 229 3.2 12.9 0.00 0.00 0.00 68 1009.3
20260505092545 15 224 4.8 19.3 0.00 0.00 0.00 67 1009.3
20260505092042 15 200 6.4 19.3 0.00 0.00 0.00 67 1009.2
20260505091611 15 188 8.0 19.3 0.00 0.00 0.00 67 1009.2
20260505091041 15 209 8.0 16.1 0.00 0.00 0.00 67 1009.1
20260505090541 15 211 6.4 16.1 0.00 0.00 0.00 66 1009.1
20260505090100 15 189 6.4 17.7 0.00 0.00 0.00 66 1009.2
20260505085540 15 218 6.4 17.7 0.00 0.00 0.00 66 1009.1
20260505085040 16 255 4.8 16.1 0.00 0.00 0.00 66 1009.1
20260505084550 16 210 4.8 22.5 0.00 0.00 0.00 65 1009.0
20260505084044 16 201 6.4 22.5 0.00 0.00 0.00 65 1009.1
20260505083544 16 165 8.0 17.7 0.00 0.00 0.00 65 1009.1
20260505083052 16 213 4.8 22.5 0.00 0.00 0.00 65 1009.0
20260505082541 16 219 4.8 22.5 0.00 0.00 0.00 65 1009.0
20260505082042 16 233 4.8 22.5 0.00 0.00 0.00 64 1009.0
20260505081557 16 234 3.2 22.5 0.00 0.00 0.00 64 1009.0
20260505081044 16 198 4.8 14.5 0.00 0.00 0.00 64 1009.0
20260505080541 16 207 4.8 14.5 0.00 0.00 0.00 63 1009.0
20260505080052 16 236 3.2 14.5 0.00 0.00 0.00 63 1008.9
20260505075540 16 217 4.8 16.1 0.00 0.00 0.00 63 1008.9
20260505075040 16 223 6.4 16.1 0.00 0.00 0.00 62 1008.9
20260505074549 16 182 4.8 17.7 0.00 0.00 0.00 62 1008.9
20260505074044 16 239 6.4 20.9 0.00 0.00 0.00 61 1008.8
20260505073539 16 225 8.0 20.9 0.00 0.00 0.00 61 1008.8
20260505073056 17 180 6.4 17.7 0.00 0.00 0.00 60 1008.8
20260505072543 17 205 8.0 16.1 0.00 0.00 0.00 60 1008.8
20260505072042 17 216 6.4 22.5 0.00 0.00 0.00 60 1008.7
20260505071549 17 221 8.0 22.5 0.00 0.00 0.00 59 1008.7
20260505071040 17 209 6.4 24.1 0.00 0.00 0.00 59 1008.6
20260505070541 17 217 6.4 24.1 0.00 0.00 0.00 59 1008.7
20260505070052 17 166 6.4 17.7 0.00 0.00 0.00 60 1008.6
20260505065541 17 222 3.2 17.7 0.00 0.00 0.00 60 1008.6
20260505065040 17 207 6.4 17.7 0.00 0.00 0.00 60 1008.7
20260505064547 17 242 4.8 14.5 0.00 0.00 0.00 61 1008.7
20260505064040 16 220 4.8 14.5 0.00 0.00 0.00 62 1008.7
20260505063540 16 222 4.8 17.7 0.00 0.00 0.00 62 1008.9
20260505063051 16 183 6.4 17.7 0.00 0.00 0.00 63 1008.9
20260505062540 16 121 3.2 14.5 0.00 0.00 0.00 63 1008.9
20260505062041 16 226 3.2 9.7 0.00 0.00 0.00 63 1008.9
20260505061548 16 211 1.6 14.5 0.00 0.00 0.00 62 1008.9
20260505061040 16 208 3.2 14.5 0.00 0.00 0.00 62 1008.9
20260505060544 16 211 3.2 6.4 0.00 0.00 0.00 62 1009.0
20260505060049 17 228 3.2 6.4 0.00 0.00 0.00 62 1009.0
20260505055540 17 219 3.2 11.3 0.00 0.00 0.00 61 1009.0
20260505055041 17 227 3.2 11.3 0.00 0.00 0.00 61 1009.1
20260505054615 17 176 4.8 12.9 0.00 0.00 0.00 61 1009.1
20260505054041 17 227 3.2 19.3 0.00 0.00 0.00 60 1009.0
20260505053540 17 215 4.8 19.3 0.00 0.00 0.00 60 1009.1
20260505053048 17 228 4.8 16.1 0.00 0.00 0.00 60 1009.1
20260505052544 17 223 4.8 16.1 0.00 0.00 0.00 60 1009.1
20260505052040 17 229 4.8 14.5 0.00 0.00 0.00 60 1009.0
20260505051549 17 215 4.8 14.5 0.00 0.00 0.00 60 1009.0
20260505051041 17 213 6.4 14.5 0.00 0.00 0.00 60 1009.0
20260505050540 17 203 4.8 19.3 0.00 0.00 0.00 60 1008.9
20260505041600 17 223 3.2 16.1 0.00 0.00 0.00 58 1008.9
20260505041041 17 213 4.8 16.1 0.00 0.00 0.00 58 1008.8
20260505040542 17 230 4.8 12.9 0.00 0.00 0.00 57 1008.7
20260505040052 17 228 3.2 11.3 0.00 0.00 0.00 57 1008.8
20260505035540 17 212 3.2 11.3 0.00 0.00 0.00 56 1008.9
20260505035040 17 224 3.2 16.1 0.00 0.00 0.00 56 1008.7
20260505034547 17 205 3.2 16.1 0.00 0.00 0.00 56 1008.7
20260505034040 17 202 4.8 12.9 0.00 0.00 0.00 56 1008.7
20260505033542 17 169 4.8 12.9 0.00 0.00 0.00 56 1008.7
20260505033049 17 211 4.8 16.1 0.00 0.00 0.00 56 1008.7
20260505032541 17 220 4.8 16.1 0.00 0.00 0.00 55 1008.6
20260505032039 17 169 3.2 12.9 0.00 0.00 0.00 55 1008.6
20260505031547 17 216 4.8 20.9 0.00 0.00 0.00 55 1008.7
20260505031041 17 191 8.0 20.9 0.00 0.00 0.00 54 1008.6
20260505030544 17 208 6.4 17.7 0.00 0.00 0.00 54 1008.7
20260505030058 18 217 8.0 19.3 0.00 0.00 0.00 54 1008.6
20260505025541 18 204 8.0 24.1 0.00 0.00 0.00 54 1008.6
20260505025041 18 208 6.4 24.1 0.00 0.00 0.00 53 1008.6
20260505024547 18 187 6.4 24.1 0.00 0.00 0.00 53 1008.6
20260505024040 18 196 9.7 24.1 0.00 0.00 0.00 53 1008.7
20260505023540 18 221 8.0 16.1 0.00 0.00 0.00 53 1008.7
20260505023049 18 225 4.8 16.1 0.00 0.00 0.00 53 1008.8
20260505022540 18 244 6.4 16.1 0.00 0.00 0.00 52 1008.8
20260505022041 18 186 6.4 17.7 0.00 0.00 0.00 52 1008.7
20260505021552 18 211 4.8 17.7 0.00 0.00 0.00 52 1008.6
20260505021041 18 175 4.8 16.1 0.00 0.00 0.00 51 1008.6
20260505020544 18 188 6.4 16.1 0.00 0.00 0.00 51 1008.5
20260505020052 18 202 6.4 24.1 0.00 0.00 0.00 51 1008.6
20260505015542 18 209 6.4 24.1 0.00 0.00 0.00 51 1008.5
20260505015044 18 219 6.4 24.1 0.00 0.00 0.00 51 1008.5
20260505014545 18 215 8.0 24.1 0.00 0.00 0.00 50 1008.4
20260505014041 18 183 8.0 22.5 0.00 0.00 0.00 50 1008.3
20260505013545 18 205 6.4 16.1 0.00 0.00 0.00 50 1008.6
20260505013049 18 186 6.4 16.1 0.00 0.00 0.00 50 1008.6
20260505012541 18 157 8.0 16.1 0.00 0.00 0.00 49 1008.6
20260505012042 18 198 4.8 14.5 0.00 0.00 0.00 49 1008.5
20260505011549 18 206 6.4 14.5 0.00 0.00 0.00 49 1008.5
20260505011043 18 184 6.4 14.5 0.00 0.00 0.00 49 1008.4
20260505010544 18 169 6.4 14.5 0.00 0.00 0.00 49 1008.3
20260505010104 18 194 4.8 16.1 0.00 0.00 0.00 48 1008.2
20260505005541 18 190 6.4 19.3 0.00 0.00 0.00 47 1008.1
20260505005043 18 163 6.4 19.3 0.00 0.00 0.00 47 1008.1
20260505004550 18 216 8.0 16.1 0.00 0.00 0.00 47 1008.1
20260505004040 18 219 8.0 16.1 0.00 0.00 0.00 47 1008.0
20260505003541 19 180 4.8 19.3 0.00 0.00 0.00 47 1008.0
20260505003050 19 217 8.0 19.3 0.00 0.00 0.00 46 1008.0
20260505002541 19 209 4.8 12.9 0.00 0.00 0.00 46 1008.1
20260505002041 19 205 6.4 14.5 0.00 0.00 0.00 45 1008.1
20260505001552 20 159 4.8 14.5 0.00 0.00 0.00 45 1008.2
20260505001042 20 218 6.4 12.9 0.00 0.00 0.00 45 1008.2
20260505000541 20 181 4.8 12.9 0.00 0.00 0.00 44 1008.2
20260505000100 20 199 4.8 12.9 0.00 0.00 0.00 44 1008.1
20260504235545 20 179 4.8 12.9 0.00 0.00 0.00 44 1008.0
20260504235041 20 205 4.8 12.9 0.00 0.00 0.00 43 1007.9
20260504234552 20 131 4.8 14.5 0.00 0.00 0.00 42 1007.9
20260504234041 21 162 6.4 16.1 0.00 0.00 0.00 42 1007.8
20260504233543 21 198 4.8 20.9 0.00 0.00 0.00 42 1007.8
20260504233054 21 193 4.8 20.9 0.00 0.00 0.00 42 1007.8
20260504232543 21 194 4.8 14.5 0.00 0.00 0.00 42 1007.8
20260504232042 21 222 6.4 20.9 0.00 0.00 0.00 41 1007.8
20260504231551 21 183 8.0 20.9 0.00 0.00 0.00 41 1007.8
20260504231041 21 194 6.4 20.9 0.00 0.00 0.00 41 1007.8
20260504230544 21 190 9.7 20.9 0.00 0.00 0.00 41 1007.8
20260504230107 21 216 8.0 22.5 0.00 0.00 0.00 41 1007.9
20260504225545 21 199 4.8 22.5 0.00 0.00 0.00 42 1008.1
20260504225044 21 209 6.4 22.5 0.00 0.00 0.00 41 1008.0
20260504224606 21 195 6.4 19.3 0.00 0.00 0.00 41 1008.0
20260504224041 21 160 4.8 20.9 0.00 0.00 0.00 41 1008.0
20260504223541 21 213 6.4 20.9 0.00 0.00 0.00 41 1008.0
20260504223048 21 193 4.8 19.3 0.00 0.00 0.00 42 1008.0
20260504222540 21 202 3.2 20.9 0.00 0.00 0.00 41 1008.1
20260504222040 21 221 6.4 20.9 0.00 0.00 0.00 40 1008.0
20260504221545 21 214 4.8 17.7 0.00 0.00 0.00 40 1008.1
20260504221043 21 219 4.8 14.5 0.00 0.00 0.00 41 1008.2
20260504220542 21 232 3.2 16.1 0.00 0.00 0.00 41 1008.1
20260504220057 21 200 4.8 17.7 0.00 0.00 0.00 39 1008.0
20260504215542 21 216 4.8 17.7 0.00 0.00 0.00 40 1008.1
20260504215043 21 205 6.4 22.5 0.00 0.00 0.00 40 1008.1
20260504214550 21 219 8.0 22.5 0.00 0.00 0.00 39 1008.0
20260504214041 21 219 8.0 27.4 0.00 0.00 0.00 41 1008.1
20260504213542 21 169 11.3 27.4 0.00 0.00 0.00 39 1008.0
20260504213056 22 235 8.0 25.7 0.00 0.00 0.00 41 1008.0
20260504212542 22 185 6.4 19.3 0.00 0.00 0.00 41 1008.0
20260504212042 22 176 4.8 17.7 0.00 0.00 0.00 42 1008.0
20260504211557 22 220 8.0 17.7 0.00 0.00 0.00 41 1008.1
20260504211041 21 183 3.2 24.1 0.00 0.00 0.00 41 1008.2
20260504210545 21 229 4.8 24.1 0.00 0.00 0.00 40 1008.1
20260504210059 21 248 8.0 25.7 0.00 0.00 0.00 40 1008.1
20260504205544 21 203 9.7 25.7 0.00 0.00 0.00 39 1008.2
20260504205041 21 215 4.8 17.7 0.00 0.00 0.00 42 1008.0
20260504204551 21 238 8.0 22.5 0.00 0.00 0.00 40 1008.1
20260504204041 21 220 8.0 24.1 0.00 0.00 0.00 40 1008.2
20260504203541 22 226 6.4 24.1 0.00 0.00 0.00 41 1008.2
20260504203046 22 223 3.2 30.6 0.00 0.00 0.00 39 1008.2
20260504202542 22 185 3.2 30.6 0.00 0.00 0.00 41 1008.3
20260504202042 21 216 8.0 22.5 0.00 0.00 0.00 40 1008.4
20260504201552 22 212 9.7 22.5 0.00 0.00 0.00 40 1008.4
20260504201041 22 234 6.4 16.1 0.00 0.00 0.00 40 1008.6
20260504200541 22 246 3.2 29.0 0.00 0.00 0.00 42 1008.5
20260504200101 21 228 6.4 32.2 0.00 0.00 0.00 39 1008.6
20260504195542 21 202 12.9 32.2 0.00 0.00 0.00 39 1008.8
20260504195041 21 156 9.7 22.5 0.00 0.00 0.00 39 1008.7
20260504194550 22 240 4.8 24.1 0.00 0.00 0.00 39 1008.8
20260504194041 21 200 8.0 24.1 0.00 0.00 0.00 38 1008.8
20260504193542 22 137 4.8 17.7 0.00 0.00 0.00 39 1008.9
20260504193050 21 238 6.4 22.5 0.00 0.00 0.00 41 1009.0
20260504192543 22 246 8.0 22.5 0.00 0.00 0.00 41 1009.2
20260504192041 22 184 3.2 29.0 0.00 0.00 0.00 42 1009.3
20260504191606 21 207 8.0 29.0 0.00 0.00 0.00 40 1009.3
20260504191041 22 201 6.4 22.5 0.00 0.00 0.00 41 1009.4
20260504190541 21 168 3.2 19.3 0.00 0.00 0.00 41 1009.5
20260504190049 21 225 6.4 19.3 0.00 0.00 0.00 40 1009.6
20260504185541 21 258 4.8 17.7 0.00 0.00 0.00 39 1009.6
20260504185042 21 228 6.4 20.9 0.00 0.00 0.00 41 1009.7
20260504184551 21 231 6.4 20.9 0.00 0.00 0.00 42 1009.9
20260504184041 21 227 8.0 20.9 0.00 0.00 0.00 42 1010.1
20260504183543 21 236 4.8 17.7 0.00 0.00 0.00 42 1010.2
20260504183047 21 214 4.8 19.3 0.00 0.00 0.00 42 1010.3
20260504182542 21 244 6.4 19.3 0.00 0.00 0.00 42 1010.4
20260504182042 21 229 8.0 19.3 0.00 0.00 0.00 45 1010.4
20260504181552 21 234 6.4 19.3 0.00 0.00 0.00 42 1010.6
20260504181043 21 244 6.4 14.5 0.00 0.00 0.00 43 1010.5
20260504180541 20 226 4.8 14.5 0.00 0.00 0.00 43 1010.6
20260504180054 20 212 3.2 22.5 0.00 0.00 0.00 41 1010.6
20260504175540 20 265 4.8 22.5 0.00 0.00 0.00 44 1010.6
20260504175041 20 196 6.4 22.5 0.00 0.00 0.00 43 1010.7
20260504174554 20 178 4.8 22.5 0.00 0.00 0.00 46 1010.6
20260504174040 20 211 3.2 17.7 0.00 0.00 0.00 46 1010.7
20260504173542 20 182 3.2 11.3 0.00 0.00 0.00 45 1010.7
20260504173052 20 210 4.8 20.9 0.00 0.00 0.00 40 1010.7
20260504172541 20 200 4.8 20.9 0.00 0.00 0.00 44 1010.8
20260504172043 20 229 3.2 11.3 0.00 0.00 0.00 41 1010.8
20260504171555 20 234 3.2 20.9 0.00 0.00 0.00 43 1010.9
20260504171041 20 203 3.2 22.5 0.00 0.00 0.00 43 1010.9
20260504170544 19 225 9.7 22.5 0.00 0.00 0.00 41 1011.1
20260504151040 17 217 3.2 14.5 0.00 0.00 0.00 42 1012.7
20260504150541 17 214 4.8 14.5 0.00 0.00 0.00 44 1012.6